Location: Goudie Road
(49.9333°N, 119.0750°W)
Time: 13:04:43
(UTC-07:00)

Daily predictions for brighter satellites

Satellite Brightness Start Highest point End
(mag) Time Altitude Azimuth Time Altitude Azimuth Time Altitude Azimuth
Meteor 2-4 Rocket 4.3 21:25:54 10° SSW 21:31:46 67° WNW 21:37:43 10° N
PSLV R/B 3.3 21:29:07 10° SSE 21:32:12 81° WSW 21:35:20 10° NNW
Cosmos 2333 Rocket 4.2 21:27:55 10° WSW 21:33:03 34° NW 21:38:13 10° NNE
Okean 2 4.4 21:31:10 10° SSW 21:35:15 52° WNW 21:39:22 10° N
Aureole 2 Rocket 2.9 21:33:09 10° SSW 21:36:56 71° WNW 21:40:23 10° NNE
Cosmos 1943 Rocket 3.3 21:35:32 10° NNW 21:40:34 34° NE 21:45:37 10° ESE
Cosmos 1943 4.0 21:36:03 10° SSE 21:40:56 31° ESE 21:45:52 10° NE
CZ-2C R/B 3.6 21:40:31 10° WSW 21:41:29 12° W 21:42:28 10° WNW
Lacrosse 4 Rocket 3.1 21:39:58 10° SE 21:42:13 15° ESE 21:44:29 10° ENE
H-2A R/B 3.1 21:38:53 10° ESE 21:43:11 30° ENE 21:47:35 10° N
MetOp-A 4.2 21:38:23 10° SSE 21:43:45 90° E 21:49:09 10° NNW
Nimbus 7 Rocket 4.5 21:38:19 10° NNE 21:44:21 86° ESE 21:50:16 10° SSW
UNK 4.3 21:43:16 10° NNE 21:48:37 64° ESE 21:54:12 10° S
SeaSat 1 3.0 21:45:08 10° SSE 21:49:58 55° WSW 21:54:51 10° NW
SPOT 1/Viking Rocket 3.6 21:46:38 10° SSE 21:51:47 79° ENE 21:56:58 10° NNW
CZ-4B R/B 3.6 21:49:34 10° NNE 21:54:35 59° ESE 21:59:42 10° S
Cosmos 1766 4.1 21:54:54 10° N 21:58:39 36° ENE 22:01:58 12° SE
DELTA 2 DEB (DPAF) 4.3 22:00:46 11° SSE 22:04:59 62° ENE 22:09:27 10° N
Cosmos 1238 4.3 22:03:33 10° SSW 22:06:37 73° W 22:09:40 10° N
Cosmos 1758 Rocket 4.2 22:04:10 11° SSE 22:08:04 38° E 22:12:07 10° NNE
CARTOSAT-1 4.2 22:08:33 13° SE 22:12:08 44° ENE 22:16:16 10° N
ARGOS 3.3 22:14:47 10° S 22:20:12 78° WSW 22:25:41 10° NNW
Cosmos 2369 Rocket 2.5 22:14:35 10° NNW 22:20:14 65° WSW 22:25:15 13° SSE
ISS -2.7 22:20:46 10° SW 22:23:47 34° SSE 22:26:47 10° E
Cosmos 1825 Rocket 3.6 22:21:03 10° S 22:25:30 88° W 22:29:58 10° N
CZ-4C R/B 3.4 22:22:05 14° SSE 22:25:44 85° WSW 22:29:47 10° NNW
ATLAS 3B R/B 3.1 22:21:20 10° SSW 22:28:43 52° ESE 22:35:55 10° NE
SL-27 R/B 4.1 22:28:34 16° ESE 22:29:19 17° E 22:31:35 10° ENE
ATLAS CENTAUR R/B 4.5 22:26:04 10° W 22:30:11 24° NNW 22:34:16 10° NNE
Cosmos 1805 4.2 22:27:47 10° N 22:31:27 36° ENE 22:33:53 18° SE
SL-8 R/B 3.7 22:27:43 10° W 22:32:33 73° S 22:37:23 10° ESE
SL-16 R/B 4.4 22:27:52 10° WSW 22:32:47 30° NW 22:37:43 10° NNE
Atlas Centaur 2 4.3 22:30:08 10° SW 22:35:13 18° S 22:38:00 16° SSE
CZ-4 R/B 4.0 22:31:39 10° NNE 22:36:40 86° WNW 22:41:41 10° SSW
Cosmos 407 Rocket 3.6 22:32:08 10° S 22:37:18 61° ESE 22:42:27 10° NNE
Cosmos 1953 2.6 22:36:00 10° N 22:39:55 53° ENE 22:42:23 21° SSE
USA 234 4.0 22:35:50 15° SSE 22:40:57 41° SW 22:47:05 10° WNW
SL-08 RB Rocket 4.2 22:37:33 12° S 22:41:36 55° W 22:46:04 10° NNW
Lacrosse 5 rocket 3.1 22:40:26 10° W 22:44:09 35° NNW 22:48:04 10° NE
Landsat 7 4.1 22:45:23 15° S 22:49:13 64° WSW 22:53:58 10° NNW
Cosmos 2208 Rocket 4.3 22:45:13 10° NNW 22:50:22 59° ENE 22:53:56 20° SE
Spot 4 3.8 22:48:23 20° SSE 22:51:45 83° ENE 22:56:35 10° NNW
CZ-4B R/B 4.1 22:52:12 10° E 22:53:36 12° ENE 22:55:00 10° NE
COSMOS 2406 4.1 22:51:29 19° SSE 22:54:31 32° ESE 22:59:31 10° NE
Cosmos 1954 Rocket 4.2 22:52:49 16° S 22:56:53 54° ESE 23:02:03 10° NNE
Nadezhda 4 Rocket 4.3 22:53:12 19° SSE 22:57:40 51° E 23:03:45 10° NNE
COSMOS 2455 3.4 22:55:04 10° SW 23:01:01 61° NW 23:07:00 10° NNE
Cosmos 1544 3.8 22:59:11 10° N 23:02:47 41° ENE 23:04:31 25° SE
Lacrosse 5 3.4 22:59:11 10° WNW 23:03:54 37° N 23:08:37 10° ENE
Cosmos 1346 Rocket 3.6 23:00:11 10° SSW 23:03:58 48° WNW 23:07:50 10° N
Terra 2.1 23:01:40 19° S 23:05:01 64° WSW 23:09:47 10° NNW
USA 238 DEB 4.2 23:01:03 15° S 23:06:19 40° ESE 23:12:48 10° NE
USA 238 4.2 23:01:14 16° S 23:06:25 40° ESE 23:12:53 10° NE
IGS 5A 3.7 23:04:04 21° S 23:06:43 63° W 23:10:52 10° NNW
Cosmos 2084 3.4 23:04:51 10° NW 23:08:56 67° SW 23:11:07 27° SSE
Cosmos 1707 4.4 23:10:40 18° ESE 23:11:48 21° E 23:14:46 10° NE
CZ-4C R/B 4.0 23:12:00 13° ESE 23:12:41 13° ESE 23:15:21 10° ENE
H-2A R/B 4.3 23:13:19 10° ENE 23:15:24 14° E 23:16:03 14° ESE
Cosmos 1842 3.5 23:14:45 19° SSW 23:17:27 68° W 23:21:24 10° N
Cosmos 2221 3.7 23:15:43 10° N 23:19:38 32° ENE 23:21:43 21° ESE
Lacrosse 4 Rocket 1.5 23:16:20 10° SW 23:20:23 72° NW 23:24:32 10° NNE
Geosat 4.1 23:15:48 10° NNE 23:20:51 77° WNW 23:25:53 10° SW
H-2A R/B 2.8 23:18:56 17° SSW 23:22:27 44° W 23:27:19 10° NNW
Cosmos-2242 3.8 23:18:23 10° NNW 23:22:39 48° W 23:25:25 20° SSW
Cosmos 1943 Rocket 2.6 23:19:12 10° NW 23:24:32 51° WSW 23:27:52 23° S
Cosmos 1943 4.0 23:19:11 10° SW 23:24:44 53° NW 23:30:21 10° NNE
Cosmos 1758 3.9 23:21:40 10° NNW 23:25:42 52° W 23:27:57 24° SSW
Cosmos 1570 Rocket 4.2 23:22:01 10° NNW 23:27:22 70° WSW 23:30:26 26° S
Cosmos 1689 Rocket 4.2 23:30:06 17° E 23:31:14 21° ENE 23:33:45 10° NNE
Cosmos 1900 4.5 23:26:29 10° SW 23:31:40 81° NW 23:36:50 10° NE
Cosmos 1850 Rocket 4.1 23:30:31 26° S 23:33:21 56° ESE 23:38:28 10° NNE
Cosmos 1932 4.4 23:31:51 12° SSW 23:37:40 71° SE 23:43:55 10° NE
Cosmos 1656 Rocket 3.7 23:33:47 10° NNW 23:39:29 76° WSW 23:42:37 28° SSE
Okean 3 Rocket 3.9 23:37:59 31° SSE 23:39:43 51° E 23:44:02 10° NNE
Cosmos 1733 3.3 23:36:34 10° N 23:40:27 65° ENE 23:41:50 36° SSE
SL-23 DEB 3.9 23:37:09 10° SW 23:41:39 45° SSE 23:44:50 10° E
Cosmos 1607 4.2 23:40:55 23° S 23:44:34 50° ESE 23:50:33 10° NE
Cosmos 1023 Rocket 4.5 23:42:48 21° SSW 23:46:26 88° ESE 23:51:44 10° NNE
Cosmos 468 Rocket 4.4 23:45:14 10° NNW 23:50:28 57° ENE 23:53:28 24° SE
Meteor 2-5 Rocket 3.9 23:48:01 27° S 23:51:12 65° E 23:56:56 10° NNE
Cosmos 1140 Rocket 3.5 23:48:52 20° SSW 23:52:33 84° WNW 23:57:50 10° NNE
COSMOS 2487 2.7 23:55:28 45° SSE 23:56:08 53° ESE 23:59:41 10° NNE
